Track OPS 1264 (DMSP 4A F4) now! 10-day predictions OPS 1264 (DMSP 4A F4) is classified as:
1 02980U 67096A 21026.48497320 .00000065 00000-0 25663-4 0 9992 2 02980 99.2376 217.3052 0098157 318.8573 40.5251 14.59414525799846